Location: Sternwarte_Laufen
(47.9344°N, 12.9346°E)
Time: 04:35:14
(UTC+02:00)

ISS - Pass Details

Date: 23 May 2018
Orbit: 402 x 407 km, 51.6° (Epoch: 26 May)

Event Time Altitude Azimuth Distance (km) Brightness Sun altitude
Rises 00:35:52 0° 279° (W) 2,319 0.2 -21.2°
Reaches altitude 10° 00:38:01 10° 287° (WNW) 1,459 -0.7 -21.3°
Maximum altitude 00:41:08 41° 359° (N) 602 -2.5 -21.3°
Drops below altitude 10° 00:44:16 10° 72° (ENE) 1,458 -0.9 -21.4°
Sets 00:46:25 0° 80° (E) 2,318 0.1 -21.4°
